Overview Statistics Trail Chart Weather Telemetry Raw packets
 

This is the latest recevied weather packets stored in our database for station/object OM5ZU-10. If no packets are shown the sender has not sent any weather packets the latest 10 day(s).

<< 6 7 8 9 10 11 12 >>
Time Temp. Humidity Pressure Rain* Wind** Luminosity Snow
1788409350 12.22° C 85% 1019.5 hPa - - - -
1788408450 12.22° C 83% 1019.4 hPa - - - -
1788407550 12.22° C 82% 1019.2 hPa - - - -
1788406650 13.33° C 78% 1018.9 hPa - - - -
1788405750 12.78° C 79% 1019 hPa - - - -
1788404850 13.33° C 76% 1018.9 hPa - - - -
1788403950 13.33° C 78% 1018.7 hPa - - - -
1788403049 15° C 71% 1018.7 hPa - - - -
1788402149 15.56° C 70% 1018.7 hPa - - - -
1788401249 14.44° C 74% 1018.9 hPa - - - -
1788400349 13.89° C 76% 1019 hPa - - - -
1788399449 12.78° C 79% 1018.8 hPa - - - -
1788398549 13.33° C 80% 1018.7 hPa - - - -
1788397648 13.33° C 78% 1018.6 hPa - - - -
1788396748 13.89° C 78% 1018.5 hPa - - - -
1788395848 13.89° C 78% 1018.4 hPa - - - -
1788394948 13.89° C 79% 1018.6 hPa - - - -
1788394048 14.44° C 78% 1018.7 hPa - - - -
1788393148 15° C 76% 1018.6 hPa - - - -
1788392247 15.56° C 76% 1018.8 hPa - - - -
1788391347 15.56° C 74% 1018.8 hPa - - - -
1788390447 16.67° C 71% 1018.5 hPa - - - -
1788389547 16.11° C 72% 1018.6 hPa - - - -
1788388647 16.11° C 72% 1018.7 hPa - - - -
1788387747 16.67° C 70% 1018.6 hPa - - - -

* Rain since midnight (hover to see other rain measurements)
** Current wind speed in m/s (hover to see current wind gust speed)